Flag for United Kingdom Weather past 2 weeks in Derby, England, United Kingdom

59 °F

Scattered clouds.

Feels Like: 59 °F
Forecast: 44 / 58 °F
Wind: No wind

Location: East Midlands

Current Time: Oct 9, 2015 at 2:24:12 PM

Latest Report: Oct 9, 2015 at 1:50 PM

Visibility: N/A

Pressure: 30.18 "Hg

Humidity: 68%

Dew point: 48 °F

Location of DerbyLocation

Historic Weather in Derby — Graph


Derby temperature yesterday

Maximum temperature yesterday: 61 °F (at 1:20 PM)
Minimum temperature yesterday: 43 °F (at 5:50 AM)
Average temperature yesterday: 52 °F

Past Weeks' High & Low Weather Summary

High66 °F (Oct 5, 2:50 PM)100% (Sep 26, 6:50 AM)30.66 "Hg (Sep 26, 6:50 AM)
Low41 °F (Sep 26, 6:50 AM)45% (Sep 24, 3:50 PM)29.39 "Hg (Oct 6, 1:50 PM)
Average53 °F83%30.17 "Hg
* Reported Sep 24 12:20 PM — Oct 9 12:50 PM, Derby, Weather by CustomWeather, © 2015

Note: Actual official high and low records may vary slightly from our data, if they occured in-between our weather recording intervals... More about our weather records


Derby weather history for previous 24 hours

Time TempWeatherWind HumidityBarometerVisibility
12:50 PM
Fri, Oct 9
61 °FPassing clouds.5 mph63%30.21 "HgN/A
12:20 PM61 °FSunny.3 mph63%30.21 "Hg10 mi
11:50 AM61 °FPassing clouds.5 mph68%30.21 "HgN/A
11:20 AM61 °FSunny.3 mph68%30.21 "Hg10 mi
10:50 AM57 °FSunny.2 mph72%30.21 "Hg10 mi
9:50 AM54 °FClear.No wind82%30.21 "Hg6 mi
9:20 AM54 °FClear.No wind77%30.21 "Hg5 mi
8:50 AM50 °FClear.No wind82%30.21 "Hg6 mi
8:20 AM46 °FClear.No wind87%30.21 "Hg5 mi
7:50 AM46 °FClear.2 mph93%30.21 "Hg10 mi
7:20 AM48 °FClear.3 mph87%30.18 "Hg10 mi
6:50 AM45 °FClear.3 mph93%30.18 "Hg10 mi
6:20 AM46 °FClear.3 mph87%30.18 "Hg10 mi
5:50 AM46 °FClear.2 mph87%30.18 "Hg10 mi
5:20 AM48 °FClear.3 mph82%30.18 "Hg10 mi
4:20 AM48 °FClear.3 mph87%30.18 "Hg10 mi
3:50 AM48 °FClear.3 mph87%30.18 "Hg10 mi
3:20 AM50 °FClear.5 mph82%30.18 "Hg10 mi
2:50 AM50 °FPassing clouds.6 mph82%30.18 "HgN/A
2:20 AM50 °FPassing clouds.6 mph88%30.18 "HgN/A
1:50 AM52 °FClear.7 mph82%30.18 "Hg10 mi
1:20 AM52 °FPassing clouds.7 mph82%30.18 "HgN/A
12:50 AM52 °FPassing clouds.6 mph82%30.21 "HgN/A
12:20 AM52 °FPassing clouds.6 mph82%30.21 "HgN/A
11:50 PM
Thu, Oct 8
54 °FPassing clouds.7 mph77%30.21 "HgN/A
11:20 PM54 °FPassing clouds.5 mph77%30.21 "HgN/A
10:20 PM52 °FPassing clouds.8 mph88%30.21 "HgN/A
9:50 PM54 °FPassing clouds.6 mph82%30.18 "HgN/A
9:20 PM54 °FPassing clouds.6 mph82%30.18 "HgN/A
8:20 PM54 °FPassing clouds.5 mph82%30.18 "HgN/A
6:50 PM57 °FPassing clouds.3 mph72%30.18 "HgN/A
6:20 PM57 °FSunny.2 mph67%30.18 "Hg10 mi
5:50 PM57 °FSunny.3 mph67%30.15 "Hg10 mi
4:50 PM57 °FSunny.3 mph67%30.15 "Hg10 mi
4:20 PM55 °FPassing clouds.6 mph77%30.15 "HgN/A
3:20 PM59 °FPassing clouds.5 mph63%30.15 "HgN/A
2:50 PM59 °FPassing clouds.5 mph68%30.15 "HgN/A
2:20 PM59 °FPassing clouds.5 mph63%30.15 "HgN/A
Weather by CustomWeather, © 2015

See weather overviewHow to use our weather pages